一网星座-0094星 (ONEWEB-0094 )

导读

ONEWEB-0094是英国OneWeb公司低轨互联网星座中的卫星,于2020年3月21日发射升空。卫星质量约147.5千克,搭载氙气离子推进器与Ku、Ka波段天线,初期进入450km极轨道后,通过电推升轨至1200km工作轨道。该卫星服务于OneWeb全球卫星宽带网络,可提供高速低延迟互联服务,助力缩小数字鸿沟,支撑航空、海运、应急通信等多领域连接需求,是OneWeb初始星座建设的重要组成部分。

基本信息
目录编号:
45450
目录名称:
ONEWEB-0094
国际标识:
2020-020AC
轨道中心:
EARTH
卫星名称:
一网星座-0094星
卫星全名:
一网星座-0094星 (ONEWEB-0094 )
卫星状态:
在轨 (已飞行2274 天)
发射日期:
2020-03-21 UTC
国别 :
英国 (GB)
星等 :
--
轨道信息
数据来源 国际轨道数据
星历时间: 2026-06-12T14:24:35+0800
13小时前
查看轨道信息
半长轴: 7571.856km
偏心率: 0.0001642
轨道倾角: 87.915°
近地点辐角 83.753°
升交点赤经 6.827°
平近点角 276.379°
近地点: 1192.475km
远地点: 1194.963km
周期: 109.286分钟
每日圈数: 13.176476
详细信息
平衡模式:
三轴稳定
覆盖范围:
全球
运营商:
一网卫星公司
运营商所在国:
英国
制造商(研发单位):
一网卫星公司
制造商所在国:
英国
使用方式:
暂无
卫星简介
OneWeb卫星网络由648颗重约125公斤的微型卫星组成,运行在1200公里的轨道上。 每颗卫星都能够提供至少每秒8千兆位的吞吐量,以使用其高吞吐量的Ku频段有效载荷为家庭和移动平台提供互联网接入。该卫星仍在工作。
2D轨道图
3D轨道图
轨道高度分析图
轨道倾角分析图
轨道综合分析图
查看轨道综合分析图